This is the latest recevied weather packets stored in our database for station/object KF7PIZ. If no packets are shown the sender has not sent any weather packets the latest 10 day(s).
| Time | Temp. | Humidity | Pressure | Rain* | Wind** | Luminosity | Snow |
|---|---|---|---|---|---|---|---|
| 1777705919 | 12.22° C | 39% | 1017.3 hPa | 0 mm | - | 0 W/m² | - |
| 1777705617 | 12.22° C | 37% | 1017.3 hPa | 0 mm | - | 0 W/m² | - |
| 1777705315 | 12.78° C | 36% | 1017.3 hPa | 0 mm | - | 0 W/m² | - |
| 1777705013 | 12.22° C | 39% | 1017.4 hPa | 0 mm | - | 0 W/m² | - |
| 1777704710 | 12.22° C | 41% | 1017.1 hPa | 0 mm | - | 0 W/m² | - |
| 1777704409 | 12.78° C | 39% | 1017.2 hPa | 0 mm | - | 0 W/m² | - |
| 1777704105 | 12.78° C | 39% | 1017.3 hPa | 0 mm | - | 0 W/m² | - |
| 1777703803 | 12.78° C | 37% | 1017.1 hPa | 0 mm | - | 0 W/m² | - |
| 1777703501 | 12.78° C | 35% | 1016.9 hPa | 0 mm | - | 0 W/m² | - |
| 1777703198 | 13.33° C | 36% | 1017.1 hPa | 0 mm | - | 0 W/m² | - |
| 1777702895 | 13.33° C | 34% | 1017.1 hPa | 0 mm | - | 0 W/m² | - |
| 1777702593 | 13.89° C | 32% | 1016.9 hPa | 0 mm | - | 0 W/m² | - |
| 1777702291 | 13.89° C | 31% | 1017.1 hPa | 0 mm | - | 0 W/m² | - |
| 1777701990 | 14.44° C | 31% | 1017.1 hPa | 0 mm | - | 0 W/m² | - |
| 1777701687 | 15° C | 29% | 1017 hPa | 0 mm | - | 0 W/m² | - |
| 1777701385 | 15° C | 29% | 1017.2 hPa | 0 mm | - | 0 W/m² | - |
| 1777701083 | 15.56° C | 27% | 1016.9 hPa | 0 mm | - | 0 W/m² | - |
| 1777700782 | 15.56° C | 25% | 1016.9 hPa | 0 mm | - | 0 W/m² | - |
| 1777700479 | 15.56° C | 26% | 1017.2 hPa | 0 mm | - | 0 W/m² | - |
| 1777700176 | 16.11° C | 25% | 1017.2 hPa | 0 mm | - | 0 W/m² | - |
| 1777699873 | 16.11° C | 24% | 1017.1 hPa | 0 mm | - | 0 W/m² | - |
| 1777699572 | 16.11° C | 24% | 1017.1 hPa | 0 mm | - | 0 W/m² | - |
| 1777699270 | 16.67° C | 25% | 1017.1 hPa | 0 mm | - | 0 W/m² | - |
| 1777698967 | 16.67° C | 23% | 1017.1 hPa | 0 mm | - | 0 W/m² | - |
| 1777698665 | 17.22° C | 23% | 1017.1 hPa | 0 mm | - | 0 W/m² | - |
* Rain latest hour (hover to see other rain measurements)
** Current wind speed in m/s (hover to see current wind gust speed)